TimeCST,TemperatureF,Dew PointF,Humidity,Sea Level PressureIn,VisibilityMPH,Wind Direction,Wind SpeedMPH,Gust SpeedMPH,PrecipitationIn,Events,Conditions,WindDirDegrees,DateUTC
12:15 AM,41.0,24.8,53,30.19,10.0,SSW,6.9,-,N/A,,Clear,200,2013-01-19 06:15:00
12:36 AM,41.0,24.8,53,30.19,10.0,South,9.2,-,N/A,,Clear,190,2013-01-19 06:36:00
12:55 AM,41.0,24.8,53,30.18,10.0,South,9.2,-,N/A,,Clear,190,2013-01-19 06:55:00
1:15 AM,41.0,24.8,53,30.18,10.0,South,9.2,-,N/A,,Clear,190,2013-01-19 07:15:00
1:36 AM,42.8,24.8,49,30.18,10.0,South,10.4,-,N/A,,Clear,190,2013-01-19 07:36:00
1:55 AM,42.8,24.8,49,30.18,10.0,South,10.4,-,N/A,,Clear,190,2013-01-19 07:55:00
2:15 AM,41.0,24.8,53,30.18,10.0,South,9.2,-,N/A,,Clear,190,2013-01-19 08:15:00
2:36 AM,41.0,24.8,53,30.18,10.0,South,9.2,-,N/A,,Clear,180,2013-01-19 08:36:00
2:55 AM,39.2,24.8,56,30.17,10.0,South,8.1,-,N/A,,Clear,180,2013-01-19 08:55:00
3:15 AM,41.0,24.8,53,30.16,10.0,South,9.2,-,N/A,,Clear,190,2013-01-19 09:15:00
3:35 AM,41.0,24.8,53,30.16,10.0,South,10.4,-,N/A,,Clear,190,2013-01-19 09:35:00
4:15 AM,41.0,26.6,57,30.15,10.0,South,11.5,-,N/A,,Clear,190,2013-01-19 10:15:00
4:35 AM,42.8,26.6,53,30.15,10.0,South,9.2,-,N/A,,Clear,190,2013-01-19 10:35:00
5:15 AM,42.8,26.6,53,30.14,10.0,South,11.5,-,N/A,,Clear,190,2013-01-19 11:15:00
5:35 AM,42.8,26.6,53,30.15,10.0,South,11.5,-,N/A,,Clear,190,2013-01-19 11:35:00
5:55 AM,42.8,28.4,57,30.14,10.0,South,11.5,-,N/A,,Clear,190,2013-01-19 11:55:00
6:35 AM,42.8,28.4,57,30.14,10.0,South,10.4,-,N/A,,Clear,190,2013-01-19 12:35:00
6:55 AM,42.8,28.4,57,30.14,10.0,South,11.5,-,N/A,,Clear,190,2013-01-19 12:55:00
7:15 AM,42.8,28.4,57,30.14,10.0,South,9.2,-,N/A,,Clear,190,2013-01-19 13:15:00
7:35 AM,41.0,28.4,61,30.14,10.0,South,10.4,-,N/A,,Clear,190,2013-01-19 13:35:00
7:56 AM,42.8,28.4,57,30.14,10.0,South,9.2,-,N/A,,Clear,190,2013-01-19 13:56:00
8:15 AM,42.8,28.4,57,30.15,10.0,South,9.2,-,N/A,,Clear,190,2013-01-19 14:15:00
8:35 AM,44.6,28.4,53,30.15,10.0,South,10.4,-,N/A,,Clear,190,2013-01-19 14:35:00
9:15 AM,48.2,30.2,50,30.16,10.0,SSW,12.7,-,N/A,,Clear,200,2013-01-19 15:15:00
9:35 AM,50.0,30.2,47,30.17,10.0,SW,16.1,20.7,N/A,,Clear,220,2013-01-19 15:35:00
9:55 AM,51.8,32.0,47,30.18,10.0,SW,17.3,21.9,N/A,,Clear,220,2013-01-19 15:55:00
10:15 AM,53.6,32.0,44,30.18,10.0,SW,16.1,21.9,N/A,,Clear,230,2013-01-19 16:15:00
10:35 AM,53.6,32.0,44,30.18,10.0,SW,13.8,19.6,N/A,,Clear,230,2013-01-19 16:35:00
10:55 AM,53.6,32.0,44,30.18,10.0,SW,13.8,-,N/A,,Clear,220,2013-01-19 16:55:00
11:16 AM,55.4,33.8,44,30.16,10.0,SW,16.1,20.7,N/A,,Clear,220,2013-01-19 17:16:00
11:35 AM,55.4,33.8,44,30.15,10.0,SSW,16.1,23.0,N/A,,Clear,210,2013-01-19 17:35:00
12:15 PM,57.2,33.8,41,30.13,10.0,SW,15.0,-,N/A,,Clear,230,2013-01-19 18:15:00
12:35 PM,57.2,33.8,41,30.12,10.0,SW,15.0,20.7,N/A,,Clear,220,2013-01-19 18:35:00
12:55 PM,59.0,33.8,39,30.11,10.0,SW,12.7,18.4,N/A,,Clear,220,2013-01-19 18:55:00
1:15 PM,60.8,33.8,36,30.09,10.0,SW,15.0,-,N/A,,Clear,230,2013-01-19 19:15:00
1:36 PM,60.8,33.8,36,30.09,10.0,SW,16.1,19.6,N/A,,Clear,230,2013-01-19 19:36:00
1:55 PM,60.8,33.8,36,30.08,10.0,SSW,16.1,20.7,N/A,,Clear,210,2013-01-19 19:55:00
2:15 PM,60.8,33.8,36,30.08,10.0,WSW,16.1,-,N/A,,Clear,240,2013-01-19 20:15:00
2:35 PM,60.8,33.8,36,30.08,10.0,SW,13.8,-,N/A,,Clear,230,2013-01-19 20:35:00
2:55 PM,62.6,33.8,34,30.07,10.0,SW,12.7,-,N/A,,Clear,230,2013-01-19 20:55:00
3:15 PM,62.6,33.8,34,30.08,10.0,SSW,13.8,17.3,N/A,,Clear,210,2013-01-19 21:15:00
3:35 PM,60.8,33.8,36,30.08,10.0,SW,15.0,19.6,N/A,,Clear,230,2013-01-19 21:35:00
3:56 PM,60.8,33.8,36,30.09,10.0,SW,13.8,-,N/A,,Clear,220,2013-01-19 21:56:00
4:15 PM,60.8,33.8,36,30.08,10.0,SW,11.5,-,N/A,,Clear,220,2013-01-19 22:15:00
4:35 PM,60.8,33.8,36,30.09,10.0,SW,10.4,-,N/A,,Clear,220,2013-01-19 22:35:00
5:15 PM,57.2,33.8,41,30.09,10.0,SSW,8.1,-,N/A,,Clear,210,2013-01-19 23:15:00
5:35 PM,55.4,33.8,44,30.09,10.0,SSW,5.8,-,N/A,,Clear,210,2013-01-19 23:35:00
6:15 PM,51.8,33.8,50,30.11,10.0,West,4.6,-,N/A,,Clear,280,2013-01-20 00:15:00
6:35 PM,51.8,32.0,47,30.13,10.0,West,4.6,-,N/A,,Clear,270,2013-01-20 00:35:00
6:55 PM,48.2,32.0,54,30.14,10.0,West,4.6,-,N/A,,Clear,280,2013-01-20 00:55:00
7:15 PM,46.4,32.0,57,30.14,10.0,West,4.6,-,N/A,,Clear,260,2013-01-20 01:15:00
7:35 PM,44.6,30.2,57,30.15,10.0,West,3.5,-,N/A,,Clear,280,2013-01-20 01:35:00
7:55 PM,44.6,32.0,61,30.16,10.0,West,4.6,-,N/A,,Clear,270,2013-01-20 01:55:00
8:35 PM,-9999,-9999,N/A,30.17,10.0,West,4.6,-,N/A,,Clear,270,2013-01-20 02:35:00
8:55 PM,46.4,32.0,57,30.17,10.0,WSW,4.6,-,N/A,,Clear,250,2013-01-20 02:55:00
9:15 PM,44.6,32.0,61,30.17,10.0,Calm,Calm,-,N/A,,Clear,0,2013-01-20 03:15:00
9:36 PM,44.6,33.8,66,30.17,10.0,WSW,3.5,-,N/A,,Clear,240,2013-01-20 03:36:00
9:55 PM,42.8,30.2,61,30.18,10.0,SSW,3.5,-,N/A,,Clear,200,2013-01-20 03:55:00
10:15 PM,39.2,30.2,70,30.18,10.0,South,5.8,-,N/A,,Clear,190,2013-01-20 04:15:00
10:35 PM,39.2,30.2,70,30.18,10.0,South,4.6,-,N/A,,Clear,190,2013-01-20 04:35:00
10:55 PM,39.2,30.2,70,30.18,10.0,Calm,Calm,-,N/A,,Clear,0,2013-01-20 04:55:00
11:15 PM,37.4,30.2,75,30.18,10.0,Calm,Calm,-,N/A,,Clear,0,2013-01-20 05:15:00